Hourly Data Report for July 02, 2011

HALIFAX STANFIELD INT'L A
NOVA SCOTIA

44°52'48.060" N
63°30'00.050" W
145.40 m
8202250
71395
YHZ

Download Data

Hourly Data (July 2011)
Hourly Data Report for July 2, 2011
TIME
LST
Temp Definition
°C
Dew Point Definition
°C
Rel Hum Definition
%
Precip. Amount Definition
mm

Wind Dir Definition
10's deg

Wind Spd Definition
km/h
Visibility Definition
km
Stn Press Definition
kPa
Hmdx Definition


Wind Chill Definition


Weather Definition


00:00 14.9 12.8 87   34 9 24.1 99.90     Mainly Clear
01:00 13.9 12.4 91   35 9 24.1 99.94     Mainly Clear
02:00 14.0 12.9 93   35 9 19.3 99.95     Cloudy
03:00 13.8 13.2 96   34 9 12.9 99.97     Cloudy
04:00 13.8 13.0 95   35 9 12.9 100.01     Cloudy
05:00 14.2 13.3 94   7 4 19.3 100.01     Mostly Cloudy
06:00 14.6 13.5 93   36 7 16.1 100.09     Cloudy
07:00 16.6 14.2 86   2 11 16.1 100.15     Mainly Clear
08:00 16.5 14.0 85   36 7 19.3 100.16     Cloudy
09:00 17.0 14.3 84   35 6 24.1 100.16     Cloudy
10:00 18.0 14.5 80   32 9 24.1 100.13     Cloudy
11:00 18.8 14.8 78   34 4 24.1 100.14     Mainly Clear
12:00 20.6 14.5 68   35 9 24.1 100.10     Mainly Clear
13:00 22.9 15.3 62   29 13 24.1 100.04 27   Mostly Cloudy
14:00 22.4 13.9 59   36 6 24.1 100.04 26   Mostly Cloudy
15:00 24.0 15.4 59   29 7 24.1 99.98 28   Mostly Cloudy
16:00 21.9 16.0 69   18 13 24.1 99.97 27   Mostly Cloudy
17:00 22.6 16.0 66   20 17 24.1 99.96 27   Mainly Clear
18:00 21.2 15.3 69   18 17 24.1 99.92 25   Mainly Clear
19:00 19.5 14.1 71   20 17 24.1 99.91     Mainly Clear
20:00 17.0 13.7 81   21 19 24.1 99.92     Mainly Clear
21:00 15.8 13.4 86   19 17 24.1 99.94     Mainly Clear
22:00 14.6 13.0 90   19 13 24.1 99.90     Mainly Clear
23:00 14.6 12.9 90   20 15 24.1 99.89     Mainly Clear

Notes on Data Quality.

Legend

  • E = Estimated
  • M = Missing
  • NA = Not Available*
  • [empty] = Indicates an unobserved value
Date modified: